Location: Codford Saint Peter
(51.1597°N, 2.0531°W)
Time: 08:23:26
(UTC+00:00)

Envisat - Visible Passes

Search period start: 29 January 2022 00:00
Search period end: 08 February 2022 00:00
Orbit: 764 x 766 km, 98.2° (Epoch: 28 January)

Date Brightness Start Highest point End Pass type
(mag) Time Alt. Az. Time Alt. Az. Time Alt. Az.
29 Jan 5.0 04:08:32 10° NE 04:12:45 25° E 04:16:54 10° SSE visible
29 Jan 3.0 05:47:06 10° N 05:52:04 54° WNW 05:57:00 10° SW visible
30 Jan 5.9 03:33:09 10° ENE 03:35:22 13° E 03:37:36 10° ESE visible
30 Jan 3.0 05:10:08 10° NNE 05:15:15 79° ESE 05:20:20 10° SSW visible
30 Jan 4.3 06:50:07 10° N 06:53:43 20° WNW 06:57:18 10° WSW visible
31 Jan 4.2 04:33:26 10° NNE 04:38:14 40° E 04:43:00 10° SSE visible
31 Jan 3.6 06:12:37 10° N 06:17:12 35° WNW 06:21:46 10° SW visible
31 Jan 5.9 17:34:39 10° SW 17:37:41 16° W 17:40:44 10° NW visible
01 Feb 5.3 03:57:13 10° NE 04:01:01 21° E 04:04:47 10° SE visible
01 Feb 2.9 05:35:27 10° N 05:40:31 66° WNW 05:45:32 10° SSW visible
02 Feb 3.3 04:58:33 10° NNE 05:03:38 64° ESE 05:08:40 10° S visible
02 Feb 4.1 06:38:16 10° N 06:42:15 23° WNW 06:46:12 10° WSW visible
03 Feb 4.6 04:21:58 10° NNE 04:26:33 33° E 04:31:06 10° SSE visible
03 Feb 3.3 06:00:54 10° N 06:05:41 42° WNW 06:10:26 10° SW visible
04 Feb 5.6 03:46:01 10° NE 03:49:16 17° E 03:52:31 10° SE visible
04 Feb 2.9 05:23:49 10° NNE 05:28:56 81° WNW 05:34:00 10° SSW visible
04 Feb 4.5 07:04:11 10° NNW 07:07:12 16° NW 07:10:11 10° W visible
05 Feb 3.7 04:47:00 10° NNE 04:52:00 52° E 04:56:56 10° S visible
05 Feb 3.9 06:26:29 10° N 06:30:46 28° WNW 06:35:01 10° WSW visible
05 Feb 6.2 17:49:44 10° WSW 17:51:36 12° W 17:53:27 10° WNW visible
06 Feb 4.9 04:10:33 10° NE 04:14:51 27° E 04:19:07 10° SSE visible
06 Feb 3.1 05:49:13 10° N 05:54:08 51° WNW 05:59:02 10° SW visible
07 Feb 5.8 03:34:59 10° NE 03:37:30 14° E 03:40:00 10° ESE visible
07 Feb 3.0 05:12:12 10° NNE 05:17:19 84° ESE 05:22:25 10° SSW visible
07 Feb 4.3 06:52:16 10° NNW 06:55:45 19° NW 06:59:13 10° W visible
